User: anonymous   Login
Location: Unspecified
(0.0000°N, 0.0000°E)
Time: 11:51:46
(UTC+00:00)
Language:

LINK - Orbit

View from above orbital plane
View from above orbital plane
View from above satellite
View from above satellite

Ground track
Ground track

The orbit data is extracted from the following two-line orbital elements,

1 42714U 98067LV  18168.95908109  .00051193  00000-0  26750-3 0  9995
2 42714  51.6260 343.7011 0002637 208.7018 151.3839 15.80324943 61919
Epoch (UTC): 17 June 2018 23:01:04
Eccentricity: 0.0002637
inclination: 51.6260°
perigee height: 328 km
apogee height: 331 km
right ascension of ascending node: 343.7011°
argument of perigee: 208.7018°
revolutions per day: 15.80324943
mean anomaly at epoch: 151.3839°
orbit number at epoch: 6191

The dashed part of the orbit path shows where the satellite is in the earth's shadow,  

DLR